Location: Forst
(46.9333°N, 15.4333°E)
Time: 20:11:13
(UTC+00:00)

CZ-4 R/B - Pass Details

Date: 01 December 2020
Orbit: 532 x 598 km, 97.7° (Epoch: 27 January)

Event Time Altitude Azimuth Distance (km) Brightness Sun altitude
Exits shadow 16:04:37 12° 74° (ENE) 1,767 3.2 -8.9°
Maximum altitude 16:05:35 12° 59° (ENE) 1,722 3.2 -9.1°
Drops below altitude 10° 16:07:17 10° 34° (NE) 1,885 3.5 -9.3°
Sets 16:10:36 0° 5° (N) 2,806 4.7 -9.9°
